Overview Statistics Trail Chart Weather Telemetry Raw packets
 

This is the latest recevied weather packets stored in our database for station/object WA6ODQ-13. If no packets are shown the sender has not sent any weather packets the latest 10 day(s).

<< 37 38 39 40 41 42 43 >>
Time Temp. Humidity Pressure Rain* Wind** Luminosity Snow
1788416919 16.67° C 79% 1014.1 hPa 0 mm - 0 W/m² -
1788416618 16.67° C 80% 1014.1 hPa 0 mm - 0 W/m² -
1788416315 16.67° C 80% 1014.1 hPa 0 mm - 0 W/m² -
1788416013 16.67° C 79% 1014.2 hPa 0 mm - 0 W/m² -
1788415709 16.67° C 79% 1014.2 hPa 0 mm - 0 W/m² -
1788415403 16.67° C 79% 1014.1 hPa 0 mm - 0 W/m² -
1788415101 16.67° C 78% 1014.3 hPa 0 mm - 0 W/m² -
1788414800 16.67° C 78% 1014.1 hPa 0 mm - 0 W/m² -
1788414495 17.22° C 77% 1014.2 hPa 0 mm - 0 W/m² -
1788414194 17.22° C 76% 1014.2 hPa 0 mm - 0 W/m² -
1788413891 17.22° C 74% 1014 hPa 0 mm - 0 W/m² -
1788413586 18.33° C 69% 1014.3 hPa 0 mm - 0 W/m² -
1788413282 18.33° C 65% 1014.1 hPa 0 mm - 0 W/m² -
1788412977 18.33° C 65% 1014.3 hPa 0 mm - 0 W/m² -
1788412672 18.33° C 65% 1014.3 hPa 0 mm - 0 W/m² -
1788412368 18.89° C 64% 1014.1 hPa 0 mm - 0 W/m² -
1788412064 18.89° C 63% 1014.3 hPa 0 mm - 0 W/m² -
1788411762 18.89° C 63% 1014.1 hPa 0 mm - 0 W/m² -
1788411457 18.89° C 62% 1014.3 hPa 0 mm - 0 W/m² -
1788411153 18.89° C 62% 1014.2 hPa 0 mm - 0 W/m² -
1788410849 18.89° C 62% 1014.5 hPa 0 mm - 0 W/m² -
1788410538 18.89° C 62% 1014.2 hPa 0 mm - 0 W/m² -
1788410236 18.89° C 61% 1014.4 hPa 0 mm - 0 W/m² -
1788409935 19.44° C 61% 1014.2 hPa 0 mm - 0 W/m² -
1788409634 19.44° C 61% 1014.2 hPa 0 mm - 0 W/m² -

* Rain latest hour (hover to see other rain measurements)
** Current wind speed in m/s (hover to see current wind gust speed)